Weather History for EGQL - October, 2011

Change the Weather History Date:

Saturday, October 1, 2011

  Actual Average Record
Temperature  
Mean Temperature 57 °F -  
Max Temperature 59 °F 53 °F 64 °F (1997)
Min Temperature 55 °F 42 °F 39 °F (2008)
Degree Days  
Heating Degree Days 8    
Growing Degree Days 7 (Base 50)    
Moisture  
Dew Point 56 °F    
Average Humidity 96    
Maximum Humidity 100    
Minimum Humidity 83    
Precipitation  
Precipitation 0.04 in - - ()
Sea Level Pressure  
Sea Level Pressure 30.18 in    
Wind  
Wind Speed 3 mph ()    
Max Wind Speed 12 mph    
Max Gust Speed -    
Visibility 4.9 miles    
Events Rain    
Averages and records for this station are not official NWS values.
T = Trace of Precipitation, MM = Missing Value Source: Averaged Metar Reports

Daily Weather History Graph

Daily Weather History Graph

Search for Another Location

Airport or City:

Trip Planner

Search our weather history database for the weather conditions in past years. The results will help you decide how hot, cold, wet, or windy it might be!

Date:

Astronomy

Oct. 01, 2011 Rise Set
Actual Time 7:13 AM BST 6:47 PM BST
Civil Twilight 6:36 AM BST 7:24 PM BST
Nautical Twilight 5:52 AM BST 8:08 PM BST
Astronomical Twilight 5:06 AM BST 8:53 PM BST
Moon 1:12 PM BST 8:22 PM BST
Length of Visible Light 12h 48m
Length of Day
11h 33m
Waxing Crescent, 22% of the Moon is Illuminated
Oct 1
Waxing Crescent
Oct 4
First Quarter
Oct 12
Full
Oct 20
Last Quarter
Oct 26
New

Hourly Weather History & Observations

Time (BST) Temp. Dew Point Humidity Pressure Visibility Wind Dir Wind Speed Gust Speed Precip Events Conditions
12:50 AM 62 °F 58 °F 83% 30.14 in 12 mi South 1.2 mph - -   Partly Cloudy
12:50 AM 60.8 °F 59.0 °F 94% 30.12 in - South 1.2 mph - N/A   Clear
1:50 AM 60.8 °F 57.2 °F 88% 30.12 in - West 1.2 mph - N/A   Clear
2:50 AM 60.8 °F 59.0 °F 94% 30.12 in 6.2 mi West 1.2 mph - N/A Rain Light Rain
3:50 AM 59 °F 58 °F 95% 30.14 in 7 mi Calm Calm - - Rain Light Rain
3:50 AM 59.0 °F 57.2 °F 94% 30.12 in 6.2 mi Calm Calm - N/A Rain Light Rain
4:50 AM 59.0 °F 57.2 °F 94% 30.15 in 5.0 mi SSE 1.2 mph - N/A   Overcast
5:50 AM 59.0 °F 57.2 °F 94% 30.15 in 5.0 mi SSW 1.2 mph - N/A   Overcast
6:50 AM 59 °F 58 °F 96% 30.17 in 7 mi ESE 1.2 mph - - Rain Light Rain
6:50 AM 59.0 °F 59.0 °F 100% 30.15 in 6.2 mi ESE 1.2 mph - N/A Rain Light Rain
7:50 AM 57.2 °F 57.2 °F 100% 30.18 in 2.8 mi North 1.2 mph - N/A Rain Light Rain
8:50 AM 59.0 °F 59.0 °F 100% 30.18 in 2.2 mi ENE 5.8 mph - N/A   Overcast
9:50 AM 59 °F 58 °F 94% 30.21 in 2 mi ENE 8.1 mph - -   Mist
9:50 AM 59.0 °F 57.2 °F 94% 30.18 in - ENE 8.1 mph - N/A   Mostly Cloudy
10:25 AM 57.2 °F 57.2 °F 100% 30.21 in - ENE 11.5 mph - N/A   Mostly Cloudy
10:50 AM 57.2 °F 55.4 °F 94% 30.21 in 2.2 mi ENE 11.5 mph - N/A   Mostly Cloudy
11:50 AM 57.2 °F 55.4 °F 94% 30.21 in 5.6 mi ENE 10.4 mph - N/A   Mostly Cloudy
12:33 PM 57.2 °F 55.4 °F 94% 30.21 in 6.2 mi ENE 8.1 mph - N/A   Overcast
12:50 PM 57 °F 55 °F 92% 30.22 in 4 mi East 9.2 mph - -   Mist
12:50 PM 57.2 °F 55.4 °F 94% 30.21 in 6.2 mi East 9.2 mph - N/A   Mostly Cloudy
1:50 PM 57.2 °F 55.4 °F 94% 30.18 in 5.6 mi East 9.2 mph - N/A   Overcast
2:50 PM 57.2 °F 55.4 °F 94% 30.18 in 6.2 mi ESE 5.8 mph - N/A   Haze
3:50 PM 57 °F 55 °F 92% 30.21 in 3 mi ESE 6.9 mph - -   Mist
4:50 PM 57.2 °F 55.4 °F 94% 30.18 in 4.3 mi East 9.2 mph - N/A Rain Light Rain
6:50 PM 56 °F 55 °F 94% 30.20 in 4 mi ESE 8.1 mph - - Rain Light Drizzle
6:50 PM 55.4 °F 55.4 °F 100% 30.18 in 3.7 mi ESE 8.1 mph - N/A   Light Drizzle
7:50 PM 55.4 °F 55.4 °F 100% 30.18 in 3.7 mi East 5.8 mph - N/A Rain Light Rain
8:50 PM 55.4 °F 55.4 °F 100% 30.18 in 3.7 mi NE 2.3 mph - N/A Rain Rain
9:50 PM 55 °F 54 °F 98% 30.21 in 4 mi ENE 3.5 mph - - Rain Light Rain
9:50 PM 55.4 °F 55.4 °F 100% 30.18 in 4.3 mi ENE 3.5 mph - N/A   Overcast
10:50 PM 55.4 °F 55.4 °F 100% 30.21 in 3.7 mi NE 1.2 mph - N/A Rain Light Rain
11:30 PM 55.4 °F 55.4 °F 100% 30.18 in 4.3 mi West 1.2 mph - N/A Rain Light Rain
11:50 PM 55.4 °F 55.4 °F 100% 30.18 in 5.6 mi SSE 1.2 mph - N/A Rain Light Rain